Alice Springs, Australia

11:22 AM ACST on December 14, 2019 (GMT +0930)
Alice Springs

Weather History for YBAS - August, 2019

Change the Weather History Date:

Saturday, August 3, 2019

  Actual Average Record
Temperature  
Mean Temperature 52 °F -  
Max Temperature 68 °F 73 °F 86 °F (2008)
Min Temperature 35 °F 44 °F 26 °F (2003)
Degree Days  
Heating Degree Days 14    
Growing Degree Days 2 (Base 50)    
Moisture  
Dew Point 28 °F    
Average Humidity 41    
Maximum Humidity 70    
Minimum Humidity 14    
Precipitation  
Precipitation 0.00 in 0.02 in - ()
Sea Level Pressure  
Sea Level Pressure 30.36 in    
Wind  
Wind Speed 7 mph ()    
Max Wind Speed 17 mph    
Max Gust Speed -    
Visibility 6.2 miles    
Events      
Averages and records for this station are not official NWS values.
T = Trace of Precipitation, MM = Missing Value Source: Averaged Metar Reports

Daily Weather History Graph

Daily Weather History Graph

Search for Another Location

Airport or City:

Astronomy

Aug. 03, 2019 Rise Set
Actual Time 7:09 AM ACST 6:12 PM ACST
Civil Twilight 6:45 AM ACST 6:36 PM ACST
Nautical Twilight 6:18 AM ACST 7:03 PM ACST
Astronomical Twilight 5:51 AM ACST 7:30 PM ACST
Moon 8:51 AM ACST (8/3) 8:34 PM ACST (8/3)
Length of Visible Light 11h 50m
Length of Day
11h 03m
Waxing Crescent, 6% of the Moon is Illuminated
Aug 3
Waxing Crescent
Aug 8
First Quarter
Aug 15
Full
Aug 24
Last Quarter
Aug 30
New

Hourly Weather History & Observations

Time (ACST) Temp. Windchill Dew Point Humidity Pressure Visibility Wind Dir Wind Speed Gust Speed Precip Events Conditions
12:00 AM 42 °F - 23 °F 34% 30.38 in - South 8.1 mph - -   Clear
12:00 AM 42.8 °F 38.0 °F 23.0 °F 46% 30.39 in 6.2 mi South 8.1 mph - N/A   Unknown
12:30 AM 42 °F - 25 °F 37% 30.38 in - South 6.9 mph - -  
12:30 AM 42.8 °F 38.6 °F 24.8 °F 49% 30.39 in 6.2 mi South 6.9 mph - N/A   Unknown
1:00 AM 42.8 °F - 24.8 °F 49% 30.36 in 6.2 mi SSE 1.2 mph - N/A   Unknown
1:30 AM 41.0 °F - 24.8 °F 53% 30.39 in 6.2 mi NW 2.3 mph - N/A   Unknown
2:00 AM 41.0 °F 39.0 °F 24.8 °F 53% 30.39 in 6.2 mi NW 3.5 mph - N/A   Unknown
2:30 AM 39 °F - 24 °F 42% 30.37 in - North 3.5 mph - -  
2:30 AM 39.2 °F 37.0 °F 24.8 °F 56% 30.39 in 6.2 mi North 3.5 mph - N/A   Unknown
3:00 AM 38 °F - 24 °F 44% 30.37 in - Calm Calm - -   Clear
3:00 AM 37.4 °F - 23.0 °F 56% 30.36 in 6.2 mi Calm Calm - N/A   Unknown
3:30 AM 37 °F - 23 °F 43% 30.37 in - West 5.8 mph - -  
3:30 AM 37.4 °F 32.8 °F 23.0 °F 56% 30.39 in 6.2 mi West 5.8 mph - N/A   Unknown
4:00 AM 37.4 °F 31.4 °F 23.0 °F 56% 30.39 in 6.2 mi West 8.1 mph - N/A   Unknown
4:30 AM 37.4 °F 32.1 °F 24.8 °F 60% 30.39 in 6.2 mi West 6.9 mph - N/A   Unknown
5:00 AM 35.6 °F 29.2 °F 24.8 °F 65% 30.39 in 6.2 mi West 8.1 mph - N/A   Unknown
5:30 AM 37 °F - 26 °F 52% 30.39 in - West 6.9 mph - -  
5:30 AM 37.4 °F 32.1 °F 24.8 °F 60% 30.39 in 6.2 mi West 6.9 mph - N/A   Unknown
6:00 AM 36 °F - 25 °F 53% 30.40 in - WSW 8.1 mph - -   Clear
6:00 AM 37.4 °F 31.4 °F 24.8 °F 60% 30.42 in 6.2 mi SW 8.1 mph - N/A   Unknown
6:30 AM 36 °F - 26 °F 54% 30.40 in - WSW 5.8 mph - -  
6:30 AM 35.6 °F 30.7 °F 24.8 °F 65% 30.42 in 6.2 mi WSW 5.8 mph - N/A   Unknown
7:00 AM 35.6 °F 30.7 °F 26.6 °F 70% 30.42 in 6.2 mi West 5.8 mph - N/A   Unknown
7:30 AM 37.4 °F 32.8 °F 26.6 °F 65% 30.42 in 6.2 mi West 5.8 mph - N/A   Unknown
8:00 AM 41.0 °F 38.0 °F 28.4 °F 61% 30.45 in 6.2 mi NW 4.6 mph - N/A   Unknown
8:30 AM 45 °F - 31 °F 46% 30.44 in - Calm Calm - -  
8:30 AM 44.6 °F - 30.2 °F 57% 30.45 in 6.2 mi Calm Calm - N/A   Unknown
9:00 AM 49 °F - 33 °F 42% 30.43 in - ESE 5.8 mph - -   Clear
9:00 AM 48.2 °F - 33.8 °F 58% 30.42 in 6.2 mi ESE 5.8 mph - N/A   Unknown
9:30 AM 53 °F - 35 °F 38% 30.42 in - ESE 9.2 mph - -  
9:30 AM 51.8 °F - 35.6 °F 54% 30.42 in 6.2 mi ESE 9.2 mph - N/A   Unknown
10:00 AM 53.6 °F - 35.6 °F 51% 30.42 in 6.2 mi East 10.4 mph - N/A   Unknown
10:30 AM 57.2 °F - 35.6 °F 44% 30.42 in 6.2 mi ENE 12.7 mph - N/A   Unknown
11:00 AM 59.0 °F - 35.6 °F 42% 30.42 in 6.2 mi ESE 15.0 mph - N/A   Unknown
11:30 AM 60 °F - 35 °F 28% 30.40 in - East 17.3 mph - -  
11:30 AM 60.8 °F - 35.6 °F 39% 30.42 in 6.2 mi East 17.3 mph - N/A   Unknown
12:00 PM 60.8 °F - 35.6 °F 39% 30.39 in 6.2 mi East 12.7 mph - N/A   Unknown
12:30 PM 63 °F - 34 °F 22% 30.37 in - East 13.8 mph - -  
12:30 PM 62.6 °F - 33.8 °F 34% 30.39 in 6.2 mi East 13.8 mph - N/A   Unknown
1:00 PM 64.4 °F - 33.8 °F 32% 30.36 in 6.2 mi ESE 15.0 mph - N/A   Unknown
1:30 PM 64.4 °F - 32.0 °F 30% 30.33 in 6.2 mi ESE 16.1 mph - N/A   Unknown
2:00 PM 66.2 °F - 32.0 °F 28% 30.30 in 6.2 mi ESE 16.1 mph - N/A   Unknown
2:30 PM 66 °F - 31 °F 16% 30.30 in - ESE 11.5 mph - -  
2:30 PM 66.2 °F - 30.2 °F 26% 30.30 in 6.2 mi ESE 11.5 mph - N/A   Unknown
3:00 PM 67 °F - 29 °F 14% 30.28 in - East 11.5 mph - -   Clear
3:00 PM 68.0 °F - 28.4 °F 23% 30.30 in 6.2 mi East 11.5 mph - N/A   Unknown
3:30 PM 67 °F - 31 °F 15% 30.27 in - East 12.7 mph - -  
3:30 PM 66.2 °F - 30.2 °F 26% 30.27 in 6.2 mi East 12.7 mph - N/A   Unknown
4:30 PM 68.0 °F - 30.2 °F 24% 30.27 in 6.2 mi ESE 13.8 mph - N/A   Unknown
5:00 PM 66.2 °F - 28.4 °F 24% 30.27 in 6.2 mi ESE 11.5 mph - N/A   Unknown
5:30 PM 64.4 °F - 28.4 °F 26% 30.27 in 6.2 mi ESE 12.7 mph - N/A   Unknown
6:00 PM 64 °F - 28 °F 15% 30.27 in - East 12.7 mph - -   Clear
6:00 PM 64.4 °F - 28.4 °F 26% 30.27 in 6.2 mi East 12.7 mph - N/A   Unknown
6:30 PM 61 °F - 28 °F 17% 30.27 in - East 9.2 mph - -  
6:30 PM 60.8 °F - 26.6 °F 27% 30.27 in 6.2 mi East 9.2 mph - N/A   Unknown
7:30 PM 55.4 °F - 26.6 °F 33% 30.30 in 6.2 mi ESE 5.8 mph - N/A   Unknown
8:00 PM 53.6 °F - 24.8 °F 33% 30.30 in 6.2 mi SE 6.9 mph - N/A   Unknown
8:30 PM 52 °F - 26 °F 24% 30.30 in - SE 6.9 mph - -  
8:30 PM 51.8 °F - 26.6 °F 38% 30.30 in 6.2 mi SE 6.9 mph - N/A   Unknown
9:00 PM 52 °F - 26 °F 24% 30.31 in - SE 6.9 mph - -   Clear
9:00 PM 51.8 °F - 26.6 °F 38% 30.33 in 6.2 mi SE 6.9 mph - N/A   Unknown
9:30 PM 51 °F - 26 °F 25% 30.32 in - East 3.5 mph - -  
9:30 PM 50.0 °F - 26.6 °F 40% 30.33 in 6.2 mi East 3.5 mph - N/A   Unknown
10:00 PM 50.0 °F - 26.6 °F 40% 30.33 in 6.2 mi East 4.6 mph - N/A   Unknown
10:30 PM 48.2 °F - 26.6 °F 43% 30.33 in 6.2 mi Calm Calm - N/A   Unknown
11:00 PM 48.2 °F - 28.4 °F 46% 30.36 in 6.2 mi Calm Calm - N/A   Unknown
11:30 PM 46 °F - 27 °F 35% 30.34 in - Calm Calm - -  
11:30 PM 46.4 °F - 26.6 °F 46% 30.36 in 6.2 mi Calm Calm - N/A   Unknown